,,,PA_Meas_PMT16A,,PR_Meas_QMR101_102,,RH_Meas_QMH101,,SR_Meas_QMS101,,TA_Meas_QMH101,,GenWind,,GenWind,
date,time,status,PA,status,PR,status,RH,status,SR,status,TA,status,DirAvg,status,SpdAvg,
2008-11-25, 00:00:04,VALID,1003.97,VALID,0,VALID,88.1365,VALID,0,VALID,25.67,VALID,16,VALID,0.953906,
2008-11-25, 00:01:04,VALID,1003.95,VALID,0,VALID,88.1059,VALID,0,VALID,25.6506,VALID,6,VALID,0.811719,
2008-11-25, 00:02:04,VALID,1003.93,VALID,0,VALID,88.0296,VALID,0,VALID,25.67,VALID,354,VALID,0.705859,
2008-11-25, 00:03:04,VALID,1003.93,VALID,0,VALID,87.8313,VALID,0.100563,VALID,25.6895,VALID,30,VALID,1.3043,
2008-11-25, 00:04:04,VALID,1003.91,VALID,0,VALID,87.7169,VALID,0,VALID,25.7285,VALID,348,VALID,0.758984,
2008-11-25, 00:05:04,VALID,1003.89,VALID,0,VALID,87.7169,VALID,0,VALID,25.7285,VALID,4,VALID,1.16719,
2008-11-25, 00:06:04,VALID,1003.88,VALID,0,VALID,87.4422,VALID,0.100563,VALID,25.7674,VALID,359,VALID,1.14688,
2008-11-25, 00:07:04,VALID,1003.86,VALID,0,VALID,87.2439,VALID,0,VALID,25.8064,VALID,356,VALID,1.09844,
2008-11-25, 00:08:04,VALID,1003.85,VALID,0,VALID,87.16,VALID,0,VALID,25.8259,VALID,350,VALID,0.849219,
2008-11-25, 00:09:04,VALID,1003.82,VALID,0,VALID,87.1066,VALID,0.100563,VALID,25.8064,VALID,1,VALID,0.780859,
2008-11-25, 00:10:04,VALID,1003.81,VALID,0,VALID,87.0303,VALID,0,VALID,25.8278,VALID,341,VALID,1.02969,
2008-11-25, 00:11:04,VALID,1003.78,VALID,0,VALID,86.9921,VALID,0,VALID,25.8083,VALID,350,VALID,0.882031,
2008-11-25, 00:12:04,VALID,1003.75,VALID,0,VALID,87.1066,VALID,0,VALID,25.7869,VALID,23,VALID,1.41211,
2008-11-25, 00:13:04,VALID,1003.74,VALID,0,VALID,86.9998,VALID,0,VALID,25.785,VALID,29,VALID,1.29258,
2008-11-25, 00:14:04,VALID,1003.75,VALID,0,VALID,87.0303,VALID,0,VALID,25.8473,VALID,22,VALID,0.516016,
2008-11-25, 00:15:04,VALID,1003.71,VALID,0,VALID,86.9616,VALID,0,VALID,25.8473,VALID,7,VALID,1.15195,
2008-11-25, 00:16:04,VALID,1003.71,VALID,0,VALID,86.9464,VALID,0,VALID,25.8064,VALID,4,VALID,0.549609,
2008-11-25, 00:17:04,VALID,1003.74,VALID,0,VALID,87.0226,VALID,0,VALID,25.7869,VALID,349,VALID,0.912891,
2008-11-25, 00:18:04,VALID,1003.72,VALID,0,VALID,87.076,VALID,0,VALID,25.8083,VALID,352,VALID,1.07617,
2008-11-25, 00:19:04,VALID,1003.71,VALID,0,VALID,87.1828,VALID,0,VALID,25.8083,VALID,13,VALID,0.647266,
2008-11-25, 00:20:04,VALID,1003.72,VALID,0,VALID,87.2286,VALID,0,VALID,25.8083,VALID,17,VALID,1.10859,
2008-11-25, 00:21:04,VALID,1003.69,VALID,0,VALID,87.221,VALID,0,VALID,25.7869,VALID,8,VALID,0.669531,
2008-11-25, 00:22:04,VALID,1003.68,VALID,0,VALID,87.1523,VALID,0,VALID,25.7869,VALID,6,VALID,1.125,
2008-11-25, 00:23:04,VALID,1003.67,VALID,0,VALID,87.1142,VALID,0,VALID,25.8278,VALID,359,VALID,0.794531,
2008-11-25, 00:24:04,VALID,1003.63,VALID,0,VALID,87.16,VALID,0,VALID,25.8064,VALID,347,VALID,0.892187,
2008-11-25, 00:25:04,VALID,1003.65,VALID,0,VALID,87.2591,VALID,0,VALID,25.7869,VALID,18,VALID,0.817969,
2008-11-25, 00:26:04,VALID,1003.64,VALID,0,VALID,87.2973,VALID,0,VALID,25.8103,VALID,3,VALID,1.0418,
2008-11-25, 00:27:04,VALID,1003.63,VALID,0,VALID,87.4193,VALID,0,VALID,25.7889,VALID,353,VALID,0.871484,
2008-11-25, 00:28:04,VALID,1003.61,VALID,0,VALID,87.4727,VALID,0,VALID,25.7694,VALID,14,VALID,1.09766,
2008-11-25, 00:29:04,VALID,1003.62,VALID,0,VALID,87.4956,VALID,0,VALID,25.748,VALID,356,VALID,0.953516,
2008-11-25, 00:30:04,VALID,1003.63,VALID,0,VALID,87.5719,VALID,0,VALID,25.748,VALID,349,VALID,0.803516,
2008-11-25, 00:31:04,VALID,1003.62,VALID,0,VALID,87.6024,VALID,0,VALID,25.748,VALID,20,VALID,0.769922,
2008-11-25, 00:32:04,VALID,1003.57,VALID,0,VALID,87.5338,VALID,0,VALID,25.748,VALID,3,VALID,0.962891,
2008-11-25, 00:33:04,VALID,1003.56,VALID,0,VALID,87.4804,VALID,0,VALID,25.748,VALID,8,VALID,0.351172,
2008-11-25, 00:34:04,VALID,1003.54,VALID,0,VALID,87.5185,VALID,0,VALID,25.748,VALID,357,VALID,0.796094,
2008-11-25, 00:35:04,VALID,1003.49,VALID,0,VALID,87.6558,VALID,0,VALID,25.7304,VALID,358,VALID,0.670703,
2008-11-25, 00:36:04,VALID,1003.46,VALID,0,VALID,87.6863,VALID,0,VALID,25.6895,VALID,15,VALID,1.25937,
2008-11-25, 00:37:04,VALID,1003.47,VALID,0,VALID,87.6635,VALID,0,VALID,25.6895,VALID,349,VALID,0.644922,
2008-11-25, 00:38:04,VALID,1003.44,VALID,0,VALID,87.7626,VALID,0,VALID,25.6915,VALID,357,VALID,0.707422,
2008-11-25, 00:39:04,VALID,1003.41,VALID,0,VALID,87.816,VALID,0,VALID,25.672,VALID,13,VALID,0.796875,
2008-11-25, 00:40:04,VALID,1003.42,VALID,0,VALID,87.9,VALID,0.100563,VALID,25.6292,VALID,352,VALID,0.640234,
2008-11-25, 00:41:04,VALID,1003.39,VALID,0,VALID,87.8466,VALID,0.100563,VALID,25.6292,VALID,353,VALID,0.760156,
2008-11-25, 00:42:04,VALID,1003.36,VALID,0,VALID,87.8847,VALID,0.100563,VALID,25.6097,VALID,347,VALID,1.04102,
2008-11-25, 00:43:04,VALID,1003.33,VALID,0,VALID,87.9381,VALID,0.100563,VALID,25.6097,VALID,5,VALID,0.862891,
2008-11-25, 00:44:04,VALID,1003.34,VALID,0,VALID,87.9457,VALID,0.100563,VALID,25.5902,VALID,356,VALID,0.644922,
2008-11-25, 00:45:04,VALID,1003.32,VALID,0,VALID,88.0068,VALID,0.100563,VALID,25.5902,VALID,349,VALID,0.685547,
2008-11-25, 00:46:04,VALID,1003.32,VALID,0,VALID,88.0373,VALID,0.100563,VALID,25.5707,VALID,1,VALID,1.21211,
2008-11-25, 00:47:04,VALID,1003.29,VALID,0,VALID,88.0525,VALID,0.100563,VALID,25.5902,VALID,358,VALID,0.687891,
2008-11-25, 00:48:04,VALID,1003.29,VALID,0,VALID,88.1441,VALID,0.100563,VALID,25.5707,VALID,19,VALID,0.648047,
2008-11-25, 00:49:04,VALID,1003.3,VALID,0,VALID,88.1822,VALID,0.100563,VALID,25.5513,VALID,11,VALID,0.556641,
2008-11-25, 00:50:04,VALID,1003.26,VALID,0,VALID,88.1593,VALID,0,VALID,25.5513,VALID,358,VALID,0.921875,
2008-11-25, 00:51:04,VALID,1003.27,VALID,0,VALID,88.1746,VALID,0.100563,VALID,25.5513,VALID,358,VALID,0.632031,
2008-11-25, 00:52:04,VALID,1003.25,VALID,0,VALID,88.1441,VALID,0.100563,VALID,25.5727,VALID,15,VALID,1.05391,
2008-11-25, 00:53:04,VALID,1003.24,VALID,0,VALID,88.1517,VALID,0.100563,VALID,25.5727,VALID,346,VALID,0.738672,
2008-11-25, 00:54:04,VALID,1003.2,VALID,0,VALID,88.1593,VALID,0.100563,VALID,25.5707,VALID,360,VALID,0.911719,
2008-11-25, 00:55:04,VALID,1003.25,VALID,0,VALID,88.0296,VALID,0,VALID,25.5727,VALID,358,VALID,0.708203,
2008-11-25, 00:56:04,VALID,1003.2,VALID,0,VALID,87.9762,VALID,0,VALID,25.5921,VALID,4,VALID,0.512891,
2008-11-25, 00:57:04,VALID,1003.19,VALID,0,VALID,87.9762,VALID,0,VALID,25.5921,VALID,346,VALID,0.357422,
2008-11-25, 00:58:04,VALID,1003.15,VALID,0,VALID,87.9839,VALID,0,VALID,25.5727,VALID,346,VALID,1.0168,
2008-11-25, 00:59:04,VALID,1003.14,VALID,0,VALID,87.961,VALID,0,VALID,25.5727,VALID,347,VALID,0.585938,
2008-11-25, 01:00:04,VALID,1003.12,VALID,0,VALID,88.1212,VALID,0,VALID,25.5532,VALID,1,VALID,0.659375,
2008-11-25, 01:01:04,VALID,1003.08,VALID,0,VALID,88.1517,VALID,0,VALID,25.5727,VALID,354,VALID,0.801172,
2008-11-25, 01:02:04,VALID,1003.1,VALID,0,VALID,88.0907,VALID,0,VALID,25.5532,VALID,346,VALID,0.540234,
2008-11-25, 01:03:04,VALID,1003.02,VALID,0,VALID,88.1441,VALID,0,VALID,25.5532,VALID,346,VALID,0.35,
2008-11-25, 01:04:04,VALID,1003.04,VALID,0,VALID,88.1517,VALID,0,VALID,25.5337,VALID,340,VALID,0.710547,
2008-11-25, 01:05:04,VALID,1003.02,VALID,0,VALID,88.289,VALID,0,VALID,25.5142,VALID,342,VALID,0.6625,
2008-11-25, 01:06:04,VALID,1002.98,VALID,0,VALID,88.3653,VALID,0,VALID,25.5142,VALID,347,VALID,0.424219,
2008-11-25, 01:07:04,VALID,1002.97,VALID,0,VALID,88.5484,VALID,0,VALID,25.4948,VALID,17,VALID,1.09805,
2008-11-25, 01:08:04,VALID,1002.97,VALID,0,VALID,88.5484,VALID,0,VALID,25.4948,VALID,21,VALID,0.333984,
2008-11-25, 01:09:04,VALID,1002.95,VALID,0,VALID,88.64,VALID,0,VALID,25.4967,VALID,2,VALID,0.667969,
2008-11-25, 01:10:04,VALID,1002.92,VALID,0,VALID,88.6094,VALID,0,VALID,25.4948,VALID,23,VALID,0.257422,
2008-11-25, 01:11:04,VALID,1002.9,VALID,0,VALID,88.64,VALID,0,VALID,25.4948,VALID,7,VALID,0.926172,
2008-11-25, 01:12:04,VALID,1002.87,VALID,0,VALID,88.556,VALID,0,VALID,25.5142,VALID,17,VALID,1.36953,
2008-11-25, 01:13:04,VALID,1002.85,VALID,0,VALID,88.2967,VALID,0,VALID,25.6116,VALID,358,VALID,0.962891,
2008-11-25, 01:14:04,VALID,1002.8,VALID,0,VALID,88.0373,VALID,0.100563,VALID,25.6506,VALID,4,VALID,0.592969,
2008-11-25, 01:15:04,VALID,1002.79,VALID,0,VALID,87.9228,VALID,0,VALID,25.67,VALID,352,VALID,0.428906,
2008-11-25, 01:16:04,VALID,1002.8,VALID,0,VALID,87.8466,VALID,0,VALID,25.6915,VALID,3,VALID,0.907422,
2008-11-25, 01:17:04,VALID,1002.76,VALID,0,VALID,87.6101,VALID,0,VALID,25.7499,VALID,343,VALID,0.793359,
2008-11-25, 01:18:04,VALID,1002.77,VALID,0,VALID,87.5261,VALID,0,VALID,25.748,VALID,8,VALID,0.653125,
2008-11-25, 01:19:04,VALID,1002.74,VALID,0,VALID,87.4804,VALID,0,VALID,25.748,VALID,4,VALID,0.636328,
2008-11-25, 01:20:04,VALID,1002.74,VALID,0,VALID,87.4956,VALID,0,VALID,25.7499,VALID,16,VALID,0.669141,
2008-11-25, 01:21:04,VALID,1002.71,VALID,0,VALID,87.4117,VALID,0,VALID,25.7285,VALID,321,VALID,0.699219,
2008-11-25, 01:22:04,VALID,1002.73,VALID,0,VALID,87.427,VALID,0,VALID,25.7285,VALID,345,VALID,0.51875,
2008-11-25, 01:23:04,VALID,1002.72,VALID,0,VALID,87.5109,VALID,0,VALID,25.7285,VALID,36,VALID,1.26953,
2008-11-25, 01:24:04,VALID,1002.71,VALID,0,VALID,87.4956,VALID,0,VALID,25.748,VALID,357,VALID,0.528125,
2008-11-25, 01:25:04,VALID,1002.69,VALID,0,VALID,87.4651,VALID,0,VALID,25.748,VALID,7,VALID,0.580469,
2008-11-25, 01:26:04,VALID,1002.73,VALID,0,VALID,87.5185,VALID,0,VALID,25.748,VALID,12,VALID,0.551953,
2008-11-25, 01:27:04,VALID,1002.76,VALID,0,VALID,87.6253,VALID,0,VALID,25.7285,VALID,8,VALID,0.416406,
2008-11-25, 01:28:04,VALID,1002.76,VALID,0,VALID,87.694,VALID,0,VALID,25.6895,VALID,10,VALID,1.00781,
2008-11-25, 01:29:04,VALID,1002.8,VALID,0,VALID,87.6406,VALID,0,VALID,25.7285,VALID,16,VALID,0.923047,
2008-11-25, 01:30:04,VALID,1002.77,VALID,0,VALID,87.4041,VALID,0,VALID,25.748,VALID,22,VALID,0.920313,
2008-11-25, 01:31:04,VALID,1002.79,VALID,0,VALID,87.3888,VALID,0,VALID,25.7674,VALID,4,VALID,1.21758,
2008-11-25, 01:32:04,VALID,1002.79,VALID,0,VALID,87.3659,VALID,0,VALID,25.7674,VALID,38,VALID,1.19727,
2008-11-25, 01:33:04,VALID,1002.8,VALID,0,VALID,87.2057,VALID,0,VALID,25.8259,VALID,3,VALID,0.837109,
2008-11-25, 01:34:04,VALID,1002.83,VALID,0,VALID,87.0913,VALID,0,VALID,25.8473,VALID,340,VALID,0.655469,
2008-11-25, 01:35:04,VALID,1002.82,VALID,0,VALID,87.1371,VALID,0,VALID,25.8064,VALID,8,VALID,0.823828,
2008-11-25, 01:36:04,VALID,1002.84,VALID,0,VALID,87.0455,VALID,0,VALID,25.8453,VALID,17,VALID,1.18438,
2008-11-25, 01:37:04,VALID,1002.86,VALID,0,VALID,86.9387,VALID,0,VALID,25.8648,VALID,2,VALID,0.882813,
2008-11-25, 01:38:04,VALID,1002.85,VALID,0,VALID,86.9769,VALID,0,VALID,25.8648,VALID,358,VALID,0.692969,
2008-11-25, 01:39:04,VALID,1002.87,VALID,0,VALID,86.9921,VALID,0,VALID,25.8453,VALID,15,VALID,0.719531,
2008-11-25, 01:40:04,VALID,1002.85,VALID,0,VALID,87.0608,VALID,0,VALID,25.8259,VALID,11,VALID,1.06836,
2008-11-25, 01:41:04,VALID,1002.86,VALID,0,VALID,87.1294,VALID,0,VALID,25.8259,VALID,11,VALID,0.791406,
2008-11-25, 01:42:04,VALID,1002.85,VALID,0,VALID,87.1447,VALID,0,VALID,25.8473,VALID,22,VALID,1.10977,
2008-11-25, 01:43:04,VALID,1002.83,VALID,0,VALID,87.1752,VALID,0,VALID,25.8064,VALID,360,VALID,0.803125,
2008-11-25, 01:44:04,VALID,1002.84,VALID,0,VALID,87.2286,VALID,0,VALID,25.7869,VALID,360,VALID,0.509766,
2008-11-25, 01:45:04,VALID,1002.82,VALID,0,VALID,87.2896,VALID,0,VALID,25.7674,VALID,341,VALID,0.492188,
2008-11-25, 01:46:04,VALID,1002.83,VALID,0,VALID,87.3812,VALID,0,VALID,25.748,VALID,334,VALID,0.748047,
2008-11-25, 01:47:04,VALID,1002.82,VALID,0,VALID,87.4499,VALID,0,VALID,25.6876,VALID,335,VALID,0.553516,
2008-11-25, 01:48:04,VALID,1002.83,VALID,0,VALID,87.5872,VALID,0,VALID,25.6895,VALID,345,VALID,0.769531,
2008-11-25, 01:49:04,VALID,1002.84,VALID,0,VALID,87.7779,VALID,0,VALID,25.6292,VALID,344,VALID,0.614062,
2008-11-25, 01:50:04,VALID,1002.83,VALID,0,VALID,87.9228,VALID,0,VALID,25.6311,VALID,338,VALID,0.610156,
2008-11-25, 01:51:04,VALID,1002.83,VALID,0,VALID,88.0754,VALID,0,VALID,25.5921,VALID,343,VALID,0.6375,
2008-11-25, 01:52:04,VALID,1002.85,VALID,0,VALID,88.2433,VALID,0,VALID,25.5727,VALID,322,VALID,0.591406,
2008-11-25, 01:53:04,VALID,1002.87,VALID,0,VALID,88.3424,VALID,0.100563,VALID,25.5746,VALID,350,VALID,0.744531,
2008-11-25, 01:54:04,VALID,1002.84,VALID,0,VALID,88.3882,VALID,0,VALID,25.5337,VALID,353,VALID,0.495313,
2008-11-25, 01:55:04,VALID,1002.85,VALID,0,VALID,88.5332,VALID,0,VALID,25.5142,VALID,335,VALID,0.624609,
2008-11-25, 01:56:04,VALID,1002.89,VALID,0,VALID,88.5408,VALID,0,VALID,25.4948,VALID,338,VALID,0.938672,
2008-11-25, 01:57:04,VALID,1002.9,VALID,0,VALID,88.5637,VALID,0,VALID,25.4948,VALID,347,VALID,1.13906,
2008-11-25, 01:58:04,VALID,1002.91,VALID,0,VALID,88.6171,VALID,0,VALID,25.4948,VALID,343,VALID,0.59375,
2008-11-25, 01:59:04,VALID,1002.94,VALID,0,VALID,88.6934,VALID,0,VALID,25.4948,VALID,356,VALID,0.417578,
2008-11-25, 02:00:04,VALID,1002.94,VALID,0,VALID,88.7086,VALID,0,VALID,25.4753,VALID,347,VALID,0.591797,
2008-11-25, 02:01:04,VALID,1002.97,VALID,0,VALID,88.7468,VALID,0,VALID,25.4753,VALID,338,VALID,0.503125,
2008-11-25, 02:02:04,VALID,1002.97,VALID,0,VALID,88.8383,VALID,0,VALID,25.4363,VALID,355,VALID,0.665625,
2008-11-25, 02:03:04,VALID,1002.96,VALID,0,VALID,88.9604,VALID,0,VALID,25.4169,VALID,354,VALID,0.717578,
2008-11-25, 02:04:04,VALID,1002.98,VALID,0,VALID,89.0443,VALID,0,VALID,25.3974,VALID,335,VALID,0.484375,
2008-11-25, 02:05:04,VALID,1002.93,VALID,0,VALID,89.1664,VALID,0,VALID,25.3779,VALID,342,VALID,0.445703,
2008-11-25, 02:06:04,VALID,1002.92,VALID,0,VALID,89.296,VALID,0,VALID,25.3779,VALID,351,VALID,0.632813,
2008-11-25, 02:07:04,VALID,1002.92,VALID,0,VALID,89.4105,VALID,0,VALID,25.3779,VALID,352,VALID,0.550781,
2008-11-25, 02:08:04,VALID,1002.88,VALID,0,VALID,89.4334,VALID,0,VALID,25.3584,VALID,345,VALID,0.207031,
2008-11-25, 02:09:04,VALID,1002.86,VALID,0,VALID,89.5173,VALID,0,VALID,25.3779,VALID,357,VALID,0.719141,
2008-11-25, 02:10:04,VALID,1002.83,VALID,0,VALID,89.4715,VALID,0,VALID,25.3584,VALID,355,VALID,0.703125,
2008-11-25, 02:11:04,VALID,1002.81,VALID,0,VALID,89.5173,VALID,0,VALID,25.3993,VALID,357,VALID,0.167578,
2008-11-25, 02:12:04,VALID,1002.82,VALID,0,VALID,89.5097,VALID,0,VALID,25.4188,VALID,318,VALID,0.624219,
2008-11-25, 02:13:04,VALID,1002.82,VALID,0,VALID,89.4791,VALID,0,VALID,25.3779,VALID,347,VALID,0.400781,
2008-11-25, 02:14:04,VALID,1002.79,VALID,0,VALID,89.502,VALID,0,VALID,25.3779,VALID,337,VALID,0.467578,
2008-11-25, 02:15:04,VALID,1002.76,VALID,0,VALID,89.4715,VALID,0,VALID,25.3779,VALID,350,VALID,0.605859,
2008-11-25, 02:16:04,VALID,1002.75,VALID,0,VALID,89.4334,VALID,0,VALID,25.3779,VALID,352,VALID,0.939453,
2008-11-25, 02:17:04,VALID,1002.76,VALID,0,VALID,89.4639,VALID,0,VALID,25.3584,VALID,351,VALID,0.88125,
2008-11-25, 02:18:04,VALID,1002.74,VALID,0,VALID,89.4486,VALID,0,VALID,25.3584,VALID,353,VALID,0.666406,
2008-11-25, 02:19:04,VALID,1002.72,VALID,0,VALID,89.5554,VALID,0,VALID,25.339,VALID,347,VALID,0.709766,
2008-11-25, 02:20:04,VALID,1002.69,VALID,0,VALID,89.6393,VALID,0,VALID,25.3195,VALID,352,VALID,0.629297,
2008-11-25, 02:21:04,VALID,1002.66,VALID,0,VALID,89.7767,VALID,0,VALID,25.2806,VALID,353,VALID,0.750781,
2008-11-25, 02:22:04,VALID,1002.66,VALID,0,VALID,89.914,VALID,0,VALID,25.2416,VALID,348,VALID,0.575781,
2008-11-25, 02:23:04,VALID,1002.67,VALID,0,VALID,90.0818,VALID,0,VALID,25.2416,VALID,350,VALID,0.826563,
2008-11-25, 02:24:04,VALID,1002.68,VALID,0,VALID,90.1657,VALID,0,VALID,25.2435,VALID,347,VALID,0.630078,
2008-11-25, 02:25:04,VALID,1002.7,VALID,0,VALID,90.2954,VALID,0.100563,VALID,25.2416,VALID,335,VALID,0.871484,
2008-11-25, 02:26:04,VALID,1002.71,VALID,0,VALID,90.4022,VALID,0.100563,VALID,25.2202,VALID,332,VALID,0.713281,
2008-11-25, 02:27:04,VALID,1002.74,VALID,0,VALID,90.4099,VALID,0.100563,VALID,25.2202,VALID,351,VALID,1.10156,
2008-11-25, 02:28:04,VALID,1002.77,VALID,0,VALID,90.3641,VALID,0.100563,VALID,25.2397,VALID,353,VALID,0.886328,
2008-11-25, 02:29:04,VALID,1002.78,VALID,0,VALID,90.3183,VALID,0.100563,VALID,25.2592,VALID,353,VALID,1.02656,
2008-11-25, 02:30:04,VALID,1002.82,VALID,0,VALID,90.2573,VALID,0.100563,VALID,25.2786,VALID,354,VALID,1.02305,
2008-11-25, 02:31:04,VALID,1002.87,VALID,0,VALID,90.1505,VALID,0.100563,VALID,25.2981,VALID,356,VALID,1.21602,
2008-11-25, 02:32:04,VALID,1002.86,VALID,0,VALID,89.9369,VALID,0.100563,VALID,25.337,VALID,355,VALID,0.671484,
2008-11-25, 02:33:04,VALID,1002.86,VALID,0,VALID,89.7767,VALID,0.100563,VALID,25.3955,VALID,2,VALID,0.613281,
2008-11-25, 02:34:04,VALID,1002.86,VALID,0,VALID,89.6622,VALID,0.100563,VALID,25.4344,VALID,295,VALID,0.717188,
2008-11-25, 02:35:04,VALID,1002.88,VALID,0,VALID,89.6241,VALID,0.100563,VALID,25.4539,VALID,7,VALID,0.507422,
2008-11-25, 02:36:04,VALID,1002.86,VALID,0,VALID,89.3723,VALID,0.100563,VALID,25.5123,VALID,351,VALID,0.59375,
2008-11-25, 02:37:04,VALID,1002.88,VALID,0,VALID,89.1358,VALID,0.100563,VALID,25.5513,VALID,27,VALID,0.769531,
2008-11-25, 02:38:04,VALID,1002.89,VALID,0,VALID,88.8993,VALID,0.100563,VALID,25.5902,VALID,24,VALID,0.960156,
2008-11-25, 02:39:04,VALID,1002.86,VALID,0,VALID,88.7849,VALID,0.100563,VALID,25.6292,VALID,16,VALID,0.608984,
2008-11-25, 02:40:04,VALID,1002.85,VALID,0,VALID,88.6934,VALID,0,VALID,25.6506,VALID,8,VALID,0.534766,
2008-11-25, 02:41:04,VALID,1002.83,VALID,0,VALID,88.5026,VALID,0,VALID,25.6506,VALID,2,VALID,0.513672,
2008-11-25, 02:42:04,VALID,1002.79,VALID,0,VALID,88.3653,VALID,0,VALID,25.67,VALID,331,VALID,0.742578,
2008-11-25, 02:43:04,VALID,1002.77,VALID,0,VALID,88.2509,VALID,0,VALID,25.67,VALID,324,VALID,0.601563,
2008-11-25, 02:44:04,VALID,1002.76,VALID,0,VALID,88.167,VALID,0,VALID,25.7109,VALID,342,VALID,0.740625,
2008-11-25, 02:45:04,VALID,1002.73,VALID,0,VALID,88.1975,VALID,0,VALID,25.67,VALID,342,VALID,0.467187,
2008-11-25, 02:46:04,VALID,1002.71,VALID,0,VALID,88.2356,VALID,0,VALID,25.67,VALID,342,VALID,0.579687,
2008-11-25, 02:47:04,VALID,1002.72,VALID,0,VALID,88.2051,VALID,0,VALID,25.672,VALID,357,VALID,0.737891,
2008-11-25, 02:48:04,VALID,1002.73,VALID,0,VALID,88.2433,VALID,0,VALID,25.67,VALID,350,VALID,0.678906,
2008-11-25, 02:49:04,VALID,1002.71,VALID,0,VALID,88.2738,VALID,0,VALID,25.6506,VALID,349,VALID,0.582031,
2008-11-25, 02:50:04,VALID,1002.74,VALID,0,VALID,88.3729,VALID,0,VALID,25.6311,VALID,351,VALID,0.86875,
2008-11-25, 02:51:04,VALID,1002.73,VALID,0,VALID,88.4035,VALID,0,VALID,25.6116,VALID,335,VALID,0.636719,
2008-11-25, 02:52:04,VALID,1002.73,VALID,0,VALID,88.4187,VALID,0,VALID,25.5921,VALID,349,VALID,0.638672,
2008-11-25, 02:53:04,VALID,1002.77,VALID,0,VALID,88.4874,VALID,0,VALID,25.5727,VALID,354,VALID,0.745313,
2008-11-25, 02:54:04,VALID,1002.8,VALID,0,VALID,88.4798,VALID,0,VALID,25.5727,VALID,346,VALID,1.27031,
2008-11-25, 02:55:04,VALID,1002.76,VALID,0,VALID,88.4492,VALID,0,VALID,25.5941,VALID,344,VALID,1.11445,
2008-11-25, 02:56:04,VALID,1002.77,VALID,0,VALID,88.4645,VALID,0,VALID,25.5727,VALID,345,VALID,0.841406,
2008-11-25, 02:57:04,VALID,1002.78,VALID,0,VALID,88.6628,VALID,0,VALID,25.5941,VALID,15,VALID,0.463281,
2008-11-25, 02:58:04,VALID,1002.8,VALID,0,VALID,88.7086,VALID,0,VALID,25.5727,VALID,15,VALID,0.0625,
2008-11-25, 02:59:04,VALID,1002.82,VALID,0,VALID,88.6781,VALID,0,VALID,25.5727,VALID,356,VALID,0.718359,
2008-11-25, 03:00:04,VALID,1002.86,VALID,0,VALID,88.7239,VALID,0,VALID,25.5532,VALID,346,VALID,0.610547,
2008-11-25, 03:01:04,VALID,1002.97,VALID,0,VALID,88.9299,VALID,0,VALID,25.5551,VALID,8,VALID,1.49219,
2008-11-25, 03:02:04,VALID,1002.93,VALID,0,VALID,88.5789,VALID,0,VALID,25.5337,VALID,317,VALID,1.59141,
2008-11-25, 03:03:04,VALID,1002.96,VALID,0,VALID,88.495,VALID,0,VALID,25.5532,VALID,20,VALID,2.11328,
2008-11-25, 03:04:04,VALID,1002.99,VALID,0,VALID,88.3958,VALID,0,VALID,25.5337,VALID,27,VALID,2.25664,
2008-11-25, 03:05:04,VALID,1002.94,VALID,0,VALID,88.3958,VALID,0,VALID,25.4753,VALID,33,VALID,2.03008,
2008-11-25, 03:06:04,VALID,1003.01,VALID,0,VALID,88.4721,VALID,0,VALID,25.4558,VALID,11,VALID,1.0957,
2008-11-25, 03:07:04,VALID,1003.01,VALID,0,VALID,88.556,VALID,0,VALID,25.4558,VALID,351,VALID,1.76563,
2008-11-25, 03:08:04,VALID,1003.01,VALID,0,VALID,88.4264,VALID,0,VALID,25.4363,VALID,348,VALID,2.27227,
2008-11-25, 03:09:04,VALID,1003.08,VALID,0,VALID,88.3882,VALID,0,VALID,25.4188,VALID,358,VALID,1.72344,
2008-11-25, 03:10:04,VALID,1003.09,VALID,0,VALID,88.2204,VALID,0,VALID,25.4188,VALID,19,VALID,1.98086,
2008-11-25, 03:11:04,VALID,1003.06,VALID,0,VALID,87.5185,VALID,0,VALID,25.3993,VALID,348,VALID,2.54102,
2008-11-25, 03:12:04,VALID,1003.08,VALID,0,VALID,87.3659,VALID,0,VALID,25.4169,VALID,350,VALID,2.22461,
2008-11-25, 03:13:04,VALID,1003.1,VALID,0,VALID,86.7861,VALID,0,VALID,25.4383,VALID,358,VALID,2.03008,
2008-11-25, 03:14:04,VALID,1003.08,VALID,0,VALID,86.6259,VALID,0,VALID,25.4577,VALID,342,VALID,1.42969,
2008-11-25, 03:15:04,VALID,1003.08,VALID,0,VALID,86.5039,VALID,0,VALID,25.4169,VALID,343,VALID,1.48789,
2008-11-25, 03:16:04,VALID,1003.11,VALID,0,VALID,86.4581,VALID,0,VALID,25.4169,VALID,354,VALID,2.025,
2008-11-25, 03:17:04,VALID,1003.1,VALID,0,VALID,85.947,VALID,0,VALID,25.376,VALID,5,VALID,1.90664,
2008-11-25, 03:18:04,VALID,1003.1,VALID,0,VALID,86.2521,VALID,0,VALID,25.3584,VALID,356,VALID,1.72969,
2008-11-25, 03:19:04,VALID,1003.05,VALID,0,VALID,86.4581,VALID,0,VALID,25.3195,VALID,344,VALID,1.65547,
2008-11-25, 03:20:04,VALID,1003.06,VALID,0,VALID,86.5649,VALID,0,VALID,25.263,VALID,349,VALID,1.96328,
2008-11-25, 03:21:04,VALID,1003.06,VALID,0,VALID,86.9311,VALID,0,VALID,25.1832,VALID,3,VALID,1.13789,
2008-11-25, 03:22:04,VALID,1003.07,VALID,0,VALID,86.9616,VALID,0,VALID,25.1442,VALID,359,VALID,1.29492,
2008-11-25, 03:23:04,VALID,1003.05,VALID,0,VALID,87.221,VALID,0,VALID,25.1053,VALID,343,VALID,1.21602,
2008-11-25, 03:24:04,VALID,1003.05,VALID,0,VALID,87.3049,VALID,0,VALID,25.0469,VALID,336,VALID,1.65273,
2008-11-25, 03:25:04,VALID,1003.05,VALID,0,VALID,87.4651,VALID,0.100563,VALID,24.9671,VALID,346,VALID,1.70781,
2008-11-25, 03:26:04,VALID,1003.01,VALID,0,VALID,87.4117,VALID,0.100563,VALID,24.9087,VALID,343,VALID,2.58125,
2008-11-25, 03:27:04,VALID,1003.02,VALID,0,VALID,87.7169,VALID,0,VALID,24.8911,VALID,352,VALID,2.125,
2008-11-25, 03:28:04,VALID,1003.03,VALID,0,VALID,88.2814,VALID,0.100563,VALID,24.8113,VALID,348,VALID,0.979688,
2008-11-25, 03:29:04,VALID,1003.03,VALID,0,VALID,88.7773,VALID,0,VALID,24.7724,VALID,358,VALID,1.58711,
2008-11-25, 03:30:04,VALID,1003.01,VALID,0,VALID,89.113,VALID,0.100563,VALID,24.6732,VALID,357,VALID,1.64883,
2008-11-25, 03:31:04,VALID,1003.04,VALID,0,VALID,89.708,VALID,0.100563,VALID,24.6574,VALID,355,VALID,1.14219,
2008-11-25, 03:32:04,VALID,1003.07,VALID,0,VALID,90.036,VALID,0.100563,VALID,24.5972,VALID,349,VALID,0.931641,
2008-11-25, 03:33:04,VALID,1003.07,VALID,0,VALID,90.4327,VALID,0.100563,VALID,24.5582,VALID,350,VALID,0.90625,
2008-11-25, 03:34:04,VALID,1003.1,VALID,0,VALID,90.6998,VALID,0.100563,VALID,24.5193,VALID,337,VALID,1.17344,
2008-11-25, 03:35:04,VALID,1003.09,VALID,0,VALID,90.776,VALID,0.100563,VALID,24.4609,VALID,355,VALID,1.93125,
2008-11-25, 03:36:04,VALID,1003.09,VALID,0,VALID,90.7608,VALID,0.100563,VALID,24.3812,VALID,349,VALID,2.03516,
2008-11-25, 03:37:04,VALID,1003.11,VALID,0,VALID,90.8676,VALID,0.100563,VALID,24.3849,VALID,353,VALID,1.09297,
2008-11-25, 03:38:04,VALID,1003.12,VALID,0,VALID,91.0202,VALID,0.100563,VALID,24.3246,VALID,342,VALID,1.40547,
2008-11-25, 03:39:04,VALID,1003.09,VALID,0,VALID,91.0202,VALID,0.100563,VALID,24.2644,VALID,354,VALID,1.38945,
2008-11-25, 03:40:04,VALID,1003.11,VALID,0,VALID,91.0354,VALID,0,VALID,24.2486,VALID,347,VALID,1.23398,
2008-11-25, 03:41:04,VALID,1003.1,VALID,0,VALID,91.249,VALID,0,VALID,24.2291,VALID,350,VALID,1.14023,
2008-11-25, 03:42:04,VALID,1003.1,VALID,0,VALID,91.3864,VALID,0,VALID,24.1902,VALID,352,VALID,1.05156,
2008-11-25, 03:43:04,VALID,1003.09,VALID,0,VALID,91.2719,VALID,0,VALID,24.1707,VALID,353,VALID,1.2543,